TimeCST,TemperatureF,Dew PointF,Humidity,Sea Level PressureIn,VisibilityMPH,Wind Direction,Wind SpeedMPH,Gust SpeedMPH,PrecipitationIn,Events,Conditions,WindDirDegrees,DateUTC
6:00 AM,74,66,69,29.89,12,ENE,8.1,,,,Clear,70,2013-04-25 12:00:00
6:00 AM,75.2,66.2,73,29.88,-9999.0,ENE,8.1,-,N/A,,Clear,70,2013-04-25 12:00:00
7:00 AM,84.2,62.6,48,29.90,-9999.0,ENE,9.2,-,N/A,,Clear,70,2013-04-25 13:00:00
8:00 AM,86.0,66.2,51,29.91,-9999.0,NNW,4.6,-,N/A,,Clear,340,2013-04-25 14:00:00
8:28 AM,89.6,62.6,40,29.90,-9999.0,ENE,23.0,-,N/A,,Clear,60,2013-04-25 14:28:00
9:00 AM,89,64,33,29.91,12,NE,26.5,,,,Clear,50,2013-04-25 15:00:00
9:00 AM,89.6,64.4,43,29.90,-9999.0,NE,26.5,-,N/A,,Clear,50,2013-04-25 15:00:00
10:00 AM,91.4,62.6,38,29.89,6.2,NE,27.6,-,N/A,,Partly Cloudy,50,2013-04-25 16:00:00
11:00 AM,93.2,62.6,36,29.88,6.2,ENE,25.3,36.8,N/A,,Scattered Clouds,60,2013-04-25 17:00:00
12:00 PM,93,61,25,29.86,12,ENE,26.5,,,,Partly Cloudy,60,2013-04-25 18:00:00
12:00 PM,93.2,60.8,34,29.85,6.2,ENE,26.5,-,N/A,,Scattered Clouds,60,2013-04-25 18:00:00
1:00 PM,95.0,60.8,32,29.82,6.2,ENE,23.0,-,N/A,,Partly Cloudy,60,2013-04-25 19:00:00
2:00 PM,95.0,60.8,32,29.79,6.2,NE,23.0,-,N/A,,Partly Cloudy,50,2013-04-25 20:00:00
3:00 PM,95,61,22,29.78,12,NE,23.0,,,,Scattered Clouds,50,2013-04-25 21:00:00
3:00 PM,95.0,60.8,32,29.77,6.2,NE,23.0,-,N/A,,Partly Cloudy,50,2013-04-25 21:00:00
4:00 PM,93.2,60.8,34,29.77,6.2,NE,25.3,-,N/A,,Partly Cloudy,50,2013-04-25 22:00:00
5:00 PM,91.4,60.8,36,29.78,-9999.0,ENE,21.9,-,N/A,,Clear,60,2013-04-25 23:00:00
6:00 PM,87,61,32,29.82,12,ENE,21.9,,,,Clear,60,2013-04-26 00:00:00
6:00 PM,87.8,60.8,40,29.81,-9999.0,ENE,21.9,-,N/A,,Clear,60,2013-04-26 00:00:00
7:00 PM,86.0,62.6,45,29.84,-9999.0,ENE,15.0,-,N/A,,Clear,60,2013-04-26 01:00:00
8:00 PM,84.2,62.6,48,29.86,-9999.0,ENE,12.7,-,N/A,,Clear,70,2013-04-26 02:00:00